Temp
22 22 22 22 23 23 23 23 23 23 23 23 23 23 22 22 22 21 21 21 21 21 21 21 21 20 20 20 20 20 20 20 20 20 20 20 20 20 19 19 19 19 19 19 19 19 19 19 19 19 18 18 18 18 18 18 18 18 17 17 17 17 16 15 14 15 16 16 16 17 17 17 17 17 17 17 18 18 17 17 17 17 16 16 16
22 22 22 22 23 23 23 23 23 23 23 23 23 22 22 22 22 21 21 21 21 21 21 21 21 20 20 20 20 21 21 20 20 20 20 20 20 20 20 19 19 19 19 19 19 19 19 19 19 19 18 18 18 18 18 18 18 18 17 17 17 17 17 16 15 15 15 16 16 16 17 16 16 17 17 17 17 17 17 17 17 17 17 16 15
22 22 22 22 22 23 23 23 23 23 23 23 23 22 22 22 22 21 21 21 21 21 21 21 21 21 20 20 20 21 21 20 20 20 20 20 20 20 20 20 20 20 19 19 19 19 19 18 18 19 18 18 18 18 18 18 17 17 17 17 17 17 17 16 15 15 15 16 16 16 16 16 16 16 17 17 16 16 16 17 17 17 16 16 15
22 22 22 22 22 22 23 23 23 23 23 23 22 22 22 22 22 22 21 21 21 21 21 21 21 21 20 20 21 21 21 21 21 21 20 20 20 20 20 20 20 20 19 19 19 19 18 18 19 19 19 18 18 18 18 18 17 17 17 17 17 17 17 16 16 15 15 15 15 15 15 15 15 16 16 16 16 16 16 16 16 16 16 16 15
22 22 21 21 22 22 23 22 23 23 23 23 22 22 22 22 22 22 21 21 21 21 21 21 21 21 21 21 21 21 21 21 21 21 21 21 20 20 20 20 20 20 20 19 19 19 18 18 19 19 19 19 19 18 18 18 17 17 17 17 17 17 17 16 16 15 14 14 14 15 15 15 15 15 15 15 15 15 16 16 16 16 16 16 16
22 21 21 21 21 22 22 22 22 23 23 23 23 22 22 22 22 22 21 21 21 21 21 21 21 21 21 21 21 21 21 21 21 21 21 21 21 20 20 20 20 20 20 19 19 19 19 19 19 19 19 19 19 18 18 17 17 17 17 17 17 17 17 16 16 15 14 13 14 14 14 15 14 14 15 14 13 13 15 15 15 15 15 15 15
22 21 21 21 21 22 21 20 21 22 22 23 23 22 22 22 22 22 22 21 21 21 22 22 21 21 21 21 21 21 21 21 21 21 21 21 21 21 20 20 20 20 19 19 19 19 19 19 19 19 19 19 19 18 18 17 17 17 17 17 17 17 16 16 15 14 14 13 13 14 14 14 14 14 14 14 13 13 14 14 14 14 15 15 15
22 21 21 21 21 21 19 19 20 21 22 22 23 22 22 22 22 22 22 21 21 22 22 22 21 21 21 21 21 22 22 21 21 21 21 21 20 20 20 20 19 19 19 19 19 19 19 19 19 19 19 19 19 18 18 17 17 17 17 17 17 16 16 15 15 14 14 13 14 14 14 14 14 14 13 13 13 14 14 14 13 13 14 14 15
21 21 21 21 20 19 19 20 22 22 21 22 23 22 22 22 22 22 22 22 22 22 22 22 21 21 21 21 22 22 21 21 21 21 21 20 20 20 20 20 20 20 20 20 19 19 19 19 19 19 19 19 19 18 18 18 17 17 17 17 16 16 15 15 14 14 14 14 14 14 14 14 14 14 14 13 13 13 14 14 13 13 13 13 14
21 21 20 19 18 18 20 22 23 22 22 22 22 22 22 22 22 22 22 22 22 22 22 21 21 21 21 22 22 21 21 21 21 21 21 20 20 20 20 20 20 20 20 20 19 19 19 19 19 19 19 19 19 18 18 18 17 17 17 17 16 16 15 15 14 14 14 14 14 14 14 14 14 14 14 13 13 13 13 13 13 13 13 13 13
21 19 19 19 18 19 21 22 23 22 21 22 22 22 22 22 22 22 22 22 22 22 22 21 21 21 21 21 21 21 21 21 21 21 20 20 20 20 20 20 20 20 20 20 20 20 20 20 20 19 19 19 19 18 18 18 18 17 17 17 16 16 15 15 14 14 14 14 14 14 14 14 14 14 14 13 13 13 13 13 13 13 13 13 13
20 19 19 19 19 19 21 22 21 20 20 21 22 22 22 22 22 22 22 22 22 22 21 21 21 21 21 21 21 21 21 21 21 20 20 20 20 20 20 20 20 20 20 20 20 20 20 20 20 19 19 19 18 18 18 18 18 17 17 17 16 16 16 15 15 15 14 14 14 14 14 14 14 14 13 13 13 13 13 13 13 13 13 13 13
19 19 19 19 19 20 21 21 20 19 19 20 21 22 22 22 22 22 22 21 22 22 21 21 21 21 21 21 21 21 21 21 21 20 20 20 20 20 20 20 20 20 20 20 20 20 20 20 20 20 19 19 18 18 18 18 17 17 17 17 16 16 16 16 16 15 15 14 14 14 14 14 13 13 14 13 13 13 13 13 13 13 13 13 13
19 19 19 19 19 20 19 19 19 19 19 20 21 21 21 21 22 22 21 21 21 21 21 21 21 21 21 21 21 21 21 21 21 20 20 20 20 20 20 20 20 20 20 20 20 20 20 20 20 20 19 19 18 18 18 18 17 17 17 17 16 17 17 16 16 16 15 15 14 14 14 14 13 13 14 13 13 13 13 13 13 13 13 13 13
19 19 19 19 20 20 19 19 20 20 19 20 21 20 20 21 21 21 20 20 20 21 21 21 21 21 21 21 21 21 21 21 21 20 20 20 20 20 20 20 20 20 20 20 20 20 20 20 20 19 19 18 18 18 18 18 17 17 17 16 16 16 16 16 16 16 15 15 14 14 14 14 14 13 13 12 12 12 12 12 12 12 12 12 12
19 19 19 19 20 20 20 20 21 20 19 19 20 20 20 21 21 20 20 20 20 20 21 21 21 21 21 21 21 21 21 21 21 21 20 20 20 20 20 20 20 20 20 20 20 20 20 20 19 19 18 18 18 18 18 17 17 16 16 16 16 16 16 16 16 15 15 15 15 14 14 14 14 13 13 12 12 12 12 12 12 12 12 12 12
19 19 19 19 20 20 20 20 20 19 19 19 19 20 21 22 21 20 20 20 20 20 20 21 21 21 21 21 21 21 21 21 21 21 21 20 20 20 20 20 20 20 20 20 20 20 19 19 19 18 18 18 18 18 18 17 17 17 16 16 16 16 16 16 16 15 15 15 15 14 14 14 14 14 13 13 13 12 12 12 12 12 12 12 13
19 19 19 19 19 20 19 19 19 19 19 19 20 21 22 22 20 19 19 19 20 20 21 21 21 21 21 21 21 21 21 21 21 21 21 20 20 20 20 20 19 19 20 19 18 17 17 18 18 17 17 18 18 18 17 17 17 16 16 15 15 15 16 16 15 15 15 15 15 15 15 14 13 13 13 13 13 13 12 11 12 12 12 12 13
20 20 19 19 19 19 19 19 20 19 19 19 20 22 22 22 20 19 19 19 20 20 21 21 21 21 21 21 21 20 20 21 21 21 20 20 19 19 19 19 19 19 19 17 15 15 16 17 17 17 17 17 17 17 17 17 16 16 15 15 14 15 15 15 14 14 14 14 14 14 14 13 12 12 12 13 13 13 13 12 12 12 12 12 12
20 20 19 19 19 19 19 20 20 19 19 20 21 21 21 21 20 19 19 20 20 20 20 20 21 21 21 20 20 20 20 20 20 20 20 19 19 19 18 18 18 18 17 15 14 15 17 17 17 16 16 17 17 17 16 16 15 15 15 14 14 15 15 14 13 13 13 13 13 13 12 12 12 12 12 12 13 13 13 13 12 12 12 12 12
20 19 19 20 19 19 19 20 19 19 19 20 20 20 20 20 20 19 19 20 20 20 20 20 20 20 20 20 20 20 19 19 19 19 19 19 19 18 17 17 17 17 15 15 15 16 17 17 17 16 16 16 16 16 16 15 15 15 14 15 14 14 13 13 12 12 12 12 12 12 12 12 12 12 12 12 13 13 13 13 13 12 12 11 11
19 19 19 19 19 19 19 19 19 19 19 19 20 20 20 20 19 19 19 20 20 20 20 20 20 20 20 19 19 19 19 19 18 19 18 18 18 18 17 17 16 15 15 16 17 17 17 17 17 16 16 16 16 15 15 15 15 15 15 15 14 13 12 12 12 12 11 11 11 11 11 11 11 12 12 12 13 13 13 13 13 13 13 13 12
19 19 19 19 19 19 18 18 18 19 19 20 20 20 20 20 20 20 20 20 20 20 20 20 19 19 19 19 19 18 18 18 18 18 18 18 18 18 17 17 16 16 16 16 17 17 17 17 16 16 16 16 15 15 15 15 15 15 15 14 13 12 12 11 11 11 11 11 10 10 11 11 10 11 11 11 12 12 12 13 13 14 14 15 14
19 18 18 18 18 18 18 19 19 19 19 20 20 20 20 20 20 20 20 20 20 20 19 19 19 18 18 18 18 18 18 18 18 17 17 17 17 17 17 17 17 16 16 16 16 17 16 16 16 15 15 15 15 15 15 15 15 14 14 13 13 12 11 11 11 11 11 10 10 10 10 10 10 10 10 11 11 12 12 12 12 13 14 14 14
18 18 18 18 18 18 19 19 19 19 20 20 20 20 20 20 19 19 19 19 19 19 19 18 18 18 17 17 18 18 18 17 17 17 16 16 16 16 17 17 17 16 16 16 16 16 15 15 15 16 16 15 15 15 15 14 14 13 12 12 12 12 11 11 11 11 10 9 9 9 9 10 10 10 10 11 11 11 11 11 11 12 13 13 13
18 18 18 19 19 19 19 19 19 20 20 20 20 20 20 20 19 19 19 19 19 19 19 18 17 17 17 17 18 18 17 17 17 17 16 16 16 16 16 17 16 16 15 15 15 15 15 15 15 16 16 15 15 14 14 13 13 12 12 11 11 11 11 11 11 10 10 9 9 9 9 10 10 11 11 10 10 10 10 9 9 10 11 11 11
18 18 18 19 19 19 20 20 20 20 20 20 20 20 19 19 19 19 19 19 19 19 18 17 17 17 17 17 17 17 17 17 17 16 16 15 15 15 16 16 16 16 15 14 14 15 15 15 15 15 15 14 14 13 12 12 12 12 12 11 11 11 11 11 11 10 9 9 9 9 10 10 10 11 11 10 10 11 10 9 8 9 9 9 9
18 19 19 19 20 20 20 20 20 20 20 19 19 18 18 18 18 19 19 19 19 18 17 17 17 16 16 16 16 16 16 16 16 15 15 15 14 14 14 15 15 15 14 14 14 15 14 14 14 13 13 12 12 12 12 12 12 12 11 11 11 11 11 11 10 10 9 9 9 10 10 10 10 10 10 10 11 11 10 9 8 8 9 9 9
19 19 19 20 20 20 20 20 19 19 18 18 17 17 17 17 18 18 18 18 18 18 17 17 17 16 16 16 16 15 15 15 15 14 14 14 14 14 14 14 14 14 14 14 14 14 14 13 13 12 12 11 11 12 12 12 11 11 11 11 11 11 11 10 10 10 10 10 10 9 9 9 10 10 9 9 10 11 10 9 8 8 8 9 9
19 19 19 20 20 20 19 19 18 18 18 18 17 17 17 17 18 18 18 18 18 18 17 17 16 16 16 16 15 15 14 14 14 14 14 15 14 14 14 14 14 14 14 14 14 13 13 13 13 12 12 12 12 12 11 11 11 10 10 10 10 10 10 10 10 10 10 10 9 9 9 9 9 9 9 8 9 10 10 9 8 8 8 8 9
19 19 19 19 19 19 19 18 19 20 20 20 19 18 18 18 17 17 17 18 18 18 17 17 16 16 16 15 15 14 14 14 14 14 14 14 14 13 13 13 13 14 14 14 14 13 13 13 12 12 12 12 11 11 11 11 10 10 10 10 10 10 10 9 10 10 10 10 9 9 9 8 8 8 8 8 8 9 9 8 8 8 8 8 8
19 18 19 19 19 19 20 20 20 21 21 21 19 18 18 18 17 16 17 17 18 17 17 16 16 15 15 15 15 14 14 14 14 14 14 14 13 13 13 13 13 13 13 13 13 13 13 12 12 12 12 11 11 11 10 10 10 10 9 9 9 9 9 9 9 9 9 9 9 9 9 9 8 8 8 8 7 8 8 8 8 8 8 8 8
20 19 20 20 20 20 20 20 20 20 20 20 19 18 18 18 17 17 16 17 17 16 15 15 15 15 15 15 14 14 14 14 14 14 13 13 13 13 13 13 13 13 13 13 13 12 12 12 12 11 11 11 11 10 10 10 10 9 9 9 9 9 9 9 9 9 9 9 9 9 9 8 8 8 8 8 7 7 7 7 7 7 8 8 8
21 21 21 21 21 20 19 19 19 19 19 19 19 19 19 19 18 17 16 15 15 14 14 14 14 14 14 14 14 14 14 14 13 13 13 13 13 13 13 13 13 13 13 13 12 12 12 11 11 11 11 10 10 10 10 10 9 9 9 9 9 8 8 8 8 8 8 8 8 8 9 8 8 8 8 8 7 7 7 7 7 7 7 8 8
21 21 21 21 20 19 18 18 19 19 19 19 19 19 19 18 17 16 16 15 14 14 14 14 14 14 14 14 13 13 13 13 13 13 13 13 13 13 13 12 12 12 12 12 12 12 11 11 11 11 10 10 10 10 10 9 9 9 9 8 8 8 8 8 8 8 8 8 8 8 8 8 8 7 7 7 7 7 7 7 7 7 7 7 7
21 20 20 20 20 19 19 19 19 19 20 20 19 19 18 17 16 15 15 14 14 14 14 14 13 14 14 13 13 13 13 12 12 12 13 13 13 13 12 12 12 12 11 11 11 11 11 11 11 10 10 10 10 10 9 9 9 8 8 8 8 8 8 7 7 7 8 8 8 8 8 8 8 8 7 7 7 7 7 7 7 7 7 8 8
20 20 20 20 20 20 19 19 19 19 19 19 18 17 16 15 15 14 14 14 14 14 13 13 13 13 13 13 13 12 12 12 12 12 13 13 13 12 12 12 12 12 11 11 11 11 11 10 10 10 10 10 9 9 9 8 8 8 8 8 8 8 7 7 7 7 8 8 8 8 8 8 8 8 7 6 6 7 7 7 7 7 8 8 8
20 20 20 20 20 20 19 19 19 18 18 17 17 16 15 15 14 13 13 13 13 13 13 13 13 13 13 13 12 12 12 12 12 12 12 12 12 12 12 12 12 12 11 11 11 11 11 10 10 10 9 9 9 9 8 8 8 8 8 8 8 7 6 7 7 7 8 8 8 8 8 8 8 8 7 6 6 6 7 7 7 7 7 8 8
20 20 20 19 19 19 19 18 18 17 17 17 16 16 15 14 14 13 13 13 13 13 13 13 13 13 13 12 12 12 11 11 12 12 12 12 12 12 12 12 12 11 11 11 11 10 10 10 9 9 9 9 8 8 8 8 8 8 8 7 7 6 6 7 7 7 7 7 7 8 8 8 8 8 8 7 6 6 7 7 7 7 7 7 8
19 19 19 19 18 18 18 17 17 17 17 17 16 16 15 14 13 13 13 13 13 13 13 13 13 13 13 12 12 12 12 11 12 12 12 12 12 12 12 12 11 11 11 11 10 10 10 9 9 9 8 8 8 8 8 8 8 8 7 7 6 6 6 7 7 7 7 7 7 7 8 8 8 8 9 8 7 7 7 7 7 7 7 7 8
18 18 18 18 18 17 17 17 17 17 16 16 16 16 15 13 13 13 13 13 13 13 12 13 13 12 12 12 12 12 12 12 12 12 12 12 12 11 11 11 11 11 11 10 10 10 9 9 9 8 8 8 8 8 8 8 7 7 7 6 6 6 6 6 7 7 7 7 7 7 7 8 8 8 8 8 8 8 9 8 7 7 8 8 8
18 18 18 17 17 17 17 16 16 16 16 15 15 15 14 13 12 12 12 13 13 12 12 12 12 12 12 12 12 12 12 12 12 12 12 11 11 11 11 11 11 10 10 10 10 9 9 9 8 8 8 8 8 7 7 7 7 7 6 6 6 6 6 6 6 6 6 7 7 7 7 8 8 8 8 8 9 9 9 9 8 8 8 8 8
18 18 17 16 16 16 16 16 15 15 15 15 15 14 14 13 12 12 12 12 12 12 12 11 11 11 11 12 12 12 12 12 12 12 12 11 11 11 11 11 10 10 10 10 9 9 9 9 8 8 8 7 7 7 7 7 7 6 6 5 5 6 6 6 6 6 6 6 6 7 7 7 8 8 8 8 9 9 9 9 9 8 7 8 8
17 16 16 16 16 16 15 15 15 15 14 14 14 14 13 13 13 13 13 13 12 12 12 11 11 11 12 12 12 12 12 12 12 12 11 11 11 10 10 10 10 10 9 9 9 9 8 8 8 8 7 7 7 7 7 6 6 6 6 5 5 5 6 6 6 6 6 6 6 6 7 7 7 8 8 8 9 9 9 9 8 8 8 8 8
16 16 16 16 15 15 15 15 14 14 14 13 13 13 13 13 13 13 13 13 13 13 12 12 12 12 12 12 12 12 12 12 12 12 11 11 10 10 10 10 9 9 9 9 9 8 8 8 8 7 7 7 6 6 6 6 6 6 6 5 5 5 5 6 6 6 6 6 6 6 6 6 7 7 7 8 8 9 8 8 8 8 8 7 7
16 16 16 15 15 15 14 14 14 13 13 13 13 13 13 13 13 13 13 13 13 13 12 12 12 12 12 12 12 12 12 12 12 11 11 10 10 10 9 9 9 9 8 8 8 8 8 8 7 7 7 6 6 6 6 6 6 6 6 5 5 5 5 5 5 6 6 6 6 6 6 6 7 7 7 8 8 8 8 8 9 9 8 7 7
16 16 15 15 15 14 14 14 13 13 13 13 13 13 13 13 13 13 13 13 13 13 12 12 12 12 12 12 12 12 12 12 11 11 11 10 10 9 9 9 9 8 8 8 8 8 8 7 7 7 6 6 6 6 6 6 5 5 5 5 5 5 5 5 5 5 5 6 6 6 6 6 6 7 7 7 8 8 8 8 9 9 8 7 7
15 15 15 15 15 14 14 14 14 13 13 13 13 13 13 13 13 13 13 13 13 13 13 12 12 12 12 12 12 12 12 12 11 11 11 10 10 9 9 9 9 8 8 8 8 8 8 7 7 6 6 6 6 6 6 6 5 5 5 5 5 5 5 5 5 5 5 5 6 6 6 6 6 6 7 7 8 8 8 8 9 9 8 8 7
15 15 15 15 15 15 14 14 14 14 14 13 13 13 13 13 13 13 13 13 13 13 13 13 13 12 12 12 12 12 12 12 11 11 11 10 10 9 9 9 9 8 8 8 8 8 7 7 7 6 6 6 6 6 6 5 5 5 5 5 5 5 5 5 5 5 5 5 6 6 6 6 6 6 7 7 8 8 8 8 8 9 8 8 7
15 15 15 15 15 15 15 14 14 14 14 14 13 13 13 13 13 13 13 13 13 13 13 13 13 13 13 12 12 12 12 12 12 11 11 11 10 10 9 9 9 9 8 8 8 8 7 7 7 6 6 6 5 5 5 5 5 5 5 5 5 5 5 5 5 5 5 5 5 5 6 6 6 6 7 7 8 8 8 8 8 8 8 8 7
15 15 15 15 15 15 14 14 14 14 14 14 14 13 13 13 13 13 13 13 13 13 13 13 13 13 13 13 12 12 12 12 12 12 11 11 10 10 9 9 9 9 8 8 8 8 7 7 7 6 6 6 5 5 5 5 5 5 5 5 5 5 5 5 5 5 5 5 5 5 6 6 6 6 7 7 7 7 8 8 8 8 8 8 8
Height
772 774 777 780 783 786 789 792 794 796 798 801 803 805 807 809 810 811 812 814 815 815 816 816 817 818 818 819 819 820 820 821 821 821 821 822 822 823 823 823 823 823 824 824 824 825 825 824 824 824 824 823 822 822 822 823 823 823 823 822 822 822 821 821 819 815 813 813 812 810 809 808 805 804 804 803 802 801 799 798 796 793 792 790 788
768 770 773 776 778 780 784 788 791 794 797 799 801 804 806 807 808 810 811 812 814 814 814 815 816 816 817 817 817 818 818 819 819 819 819 820 820 821 821 821 821 821 822 822 822 823 823 822 822 822 821 821 820 820 820 820 820 820 820 820 820 820 820 819 817 815 812 811 810 808 807 807 804 802 802 801 799 799 797 795 794 791 789 788 786
764 767 770 772 774 776 779 783 788 791 794 797 799 801 803 805 806 808 809 811 812 812 813 814 815 815 815 816 816 816 816 817 817 817 817 818 818 818 819 819 819 819 820 820 820 821 821 820 819 819 819 818 817 817 817 817 818 818 818 818 818 817 818 817 816 814 811 809 808 807 806 805 803 800 799 798 797 796 794 793 791 789 787 785 784
762 765 766 768 771 774 776 779 783 787 790 793 796 798 801 802 804 805 806 808 809 810 811 812 814 814 814 814 814 814 815 815 815 815 815 815 815 816 816 817 817 817 818 818 818 819 818 818 817 817 817 816 815 815 815 815 815 815 815 815 815 815 815 815 814 813 810 807 806 805 804 803 801 799 797 796 794 793 792 791 789 787 785 783 781
758 760 763 765 768 771 773 775 778 782 786 789 793 796 798 800 801 802 803 805 806 808 809 811 812 812 812 812 812 812 812 812 813 813 813 813 813 813 814 814 815 815 815 816 816 816 816 816 815 815 815 814 813 813 813 813 813 813 813 813 813 813 812 812 812 810 809 806 803 802 802 801 799 797 795 794 792 790 788 787 786 785 782 780 778
755 757 759 761 764 767 769 771 774 779 785 789 791 794 796 798 799 799 801 803 804 806 807 808 809 809 810 810 810 810 810 810 810 810 811 811 811 811 811 811 812 812 813 813 814 814 814 814 813 813 813 812 811 811 811 811 811 810 810 810 810 810 810 809 809 808 807 805 802 800 799 799 797 795 793 792 791 788 785 784 783 782 780 777 775
752 753 755 758 760 763 766 773 779 784 788 790 791 793 795 796 797 797 799 801 802 803 804 805 806 807 807 807 808 808 807 807 808 808 809 809 809 809 809 809 810 810 810 811 811 811 811 811 811 811 811 810 810 809 809 809 808 808 808 808 808 808 807 806 806 806 804 803 800 799 797 796 796 793 791 790 788 786 784 782 779 778 776 775 772
749 750 752 755 759 763 770 782 791 793 792 791 791 792 794 794 795 795 797 798 799 800 800 801 803 804 805 805 805 806 805 805 806 807 807 808 808 807 807 807 807 808 808 808 808 809 809 809 809 808 808 808 808 808 807 807 806 806 806 806 806 806 805 804 804 803 802 801 799 797 795 794 793 792 790 788 786 784 782 780 778 775 773 771 769
746 749 753 758 765 770 776 786 792 793 791 789 789 791 792 793 793 794 795 795 795 797 797 799 800 801 802 803 803 804 803 803 804 805 806 806 805 805 805 805 805 805 805 805 806 806 806 806 806 806 806 806 806 806 805 805 805 804 804 804 804 803 803 802 801 800 800 799 797 795 794 792 790 789 788 786 784 782 780 778 776 772 770 767 765
746 753 761 767 771 773 778 784 786 785 785 785 787 789 791 791 792 792 793 792 792 794 795 796 797 798 799 800 801 801 801 801 802 803 803 803 803 803 803 803 803 803 802 803 803 803 803 803 803 803 803 803 804 804 803 803 803 802 802 802 801 801 800 799 799 798 797 797 795 794 792 789 787 786 785 783 782 780 778 776 774 770 768 765 761
749 757 761 764 767 770 774 778 778 779 780 782 785 787 788 789 789 790 790 790 791 792 793 793 794 795 796 797 798 798 798 799 800 800 801 800 800 800 800 800 800 800 800 800 800 800 800 800 800 800 800 800 801 801 801 801 800 800 800 799 799 799 798 797 796 795 794 794 793 792 790 787 785 783 782 780 779 778 776 775 772 769 766 763 759
749 751 752 755 758 763 767 771 775 780 781 781 783 785 785 785 786 786 786 788 790 790 791 791 792 793 794 794 795 795 795 796 797 798 798 798 798 797 797 798 798 798 797 797 797 797 797 797 797 797 797 797 798 798 798 798 798 797 797 797 797 796 795 794 793 792 791 790 790 789 787 785 783 781 778 777 776 775 774 773 770 767 765 763 759
744 746 750 755 757 760 765 771 776 779 779 780 783 784 784 783 783 783 783 785 788 789 789 789 789 790 791 791 792 792 792 793 794 795 795 795 795 795 795 795 795 795 794 794 794 794 794 794 794 794 794 795 795 795 795 795 795 795 794 794 793 793 792 791 790 789 788 788 787 786 784 783 781 778 775 774 774 773 771 770 768 765 762 760 757
742 745 750 753 755 758 764 769 770 770 772 776 780 781 781 781 780 781 782 784 785 786 786 786 787 788 788 789 789 789 789 790 791 792 792 792 793 793 792 792 792 791 791 791 791 791 791 792 792 792 793 793 793 793 792 792 791 791 791 790 790 789 789 788 788 787 786 785 784 782 780 780 779 776 774 772 771 770 768 767 765 762 760 757 754
740 743 745 748 750 753 757 760 761 762 766 769 772 775 777 778 778 779 780 781 782 783 783 784 784 785 786 786 787 786 786 787 788 789 789 789 790 790 789 789 788 788 788 787 787 788 789 790 790 791 790 790 790 790 789 789 788 787 787 787 786 786 785 785 785 784 783 782 781 779 777 776 775 774 772 770 768 767 766 764 762 759 757 754 750
736 739 741 743 744 747 751 753 755 759 763 766 767 769 772 773 774 777 778 779 780 780 781 781 782 782 783 784 784 784 783 784 785 786 786 786 787 786 786 785 784 784 784 784 784 785 786 788 788 789 788 787 787 787 787 786 785 785 784 783 783 782 781 781 782 781 781 780 778 776 775 773 772 770 769 768 765 763 762 760 758 756 754 751 746
732 734 734 735 737 740 745 749 753 758 764 766 766 766 768 769 771 773 775 776 776 777 777 778 779 780 780 782 782 782 781 781 782 782 783 783 783 783 782 781 781 781 780 781 781 782 783 785 786 787 787 786 785 785 785 784 783 782 781 780 779 778 778 778 778 778 777 776 775 773 772 770 768 766 765 764 762 761 760 757 754 753 751 747 742
726 726 727 730 734 739 743 747 752 757 763 765 764 764 765 766 767 770 772 773 773 774 774 775 776 776 777 779 780 779 779 779 780 780 780 780 780 780 779 778 778 778 778 778 779 780 782 783 784 784 784 784 784 783 782 782 780 779 778 777 776 775 775 775 775 774 774 772 771 770 768 766 764 762 760 759 758 758 758 754 752 750 748 744 739
720 722 726 730 734 738 741 745 747 752 757 760 760 761 763 763 764 767 769 770 770 771 772 772 772 773 774 775 776 775 775 776 777 777 777 777 777 776 776 775 775 775 776 777 778 780 782 782 781 781 781 781 781 780 780 779 777 776 776 775 774 773 772 773 773 771 771 769 768 766 764 763 761 759 757 756 754 754 754 751 749 747 745 741 737
718 723 727 730 732 735 738 740 743 746 750 754 758 761 762 761 762 765 766 767 768 768 769 769 769 770 771 772 772 772 772 773 774 774 773 774 773 772 772 773 773 773 774 774 775 778 780 780 779 779 779 779 778 777 777 776 775 774 773 772 771 771 771 771 770 769 769 767 765 764 762 760 759 757 754 752 751 750 749 747 746 744 742 738 734
720 724 727 728 731 733 735 738 741 743 747 752 757 760 760 759 760 762 764 764 764 765 765 766 767 767 768 769 769 770 770 770 770 770 770 770 770 769 769 771 771 772 772 772 771 773 774 775 775 777 777 776 776 775 774 774 773 771 771 770 770 770 769 769 768 768 767 765 764 762 760 758 756 754 752 750 748 746 745 743 741 739 737 734 729
720 723 725 727 730 733 735 738 741 744 746 750 754 756 756 757 759 760 761 761 761 761 762 763 764 765 765 766 766 766 767 767 767 767 767 767 768 767 767 768 768 768 768 768 767 768 770 771 772 773 774 774 773 773 772 771 770 769 768 768 768 768 768 767 767 766 765 763 762 760 758 757 754 752 750 747 745 743 741 739 737 734 731 729 725
719 722 724 727 729 733 735 737 740 743 744 747 750 752 753 756 757 758 758 758 758 758 759 761 762 762 762 763 763 763 764 764 764 764 764 765 766 765 765 765 765 765 765 765 766 766 767 768 770 771 771 771 771 770 770 769 768 767 766 766 766 766 766 766 765 764 763 762 761 759 757 755 753 750 748 746 743 741 738 735 732 729 726 722 719
719 721 724 726 729 732 734 735 738 740 742 745 748 750 752 754 755 755 755 755 755 756 757 759 760 760 760 760 760 761 761 761 762 762 762 763 763 763 763 763 763 763 764 764 765 765 766 767 768 768 768 768 768 768 767 766 765 764 764 764 765 765 765 764 763 763 761 760 759 757 755 753 751 749 746 744 741 738 735 732 728 725 722 718 714
718 721 724 726 728 731 733 735 737 739 741 743 746 748 750 752 752 752 752 752 753 754 755 757 757 757 758 758 758 758 759 759 760 760 761 761 761 761 761 762 762 762 762 762 763 763 764 765 766 766 766 765 765 765 765 764 763 762 763 763 764 764 763 763 762 761 760 759 757 756 754 752 750 747 745 742 739 735 732 729 725 721 718 713 708
719 721 723 725 728 730 732 734 737 738 740 742 744 746 748 748 749 749 749 749 751 752 753 754 754 755 756 756 757 757 757 757 758 758 759 759 759 759 760 760 760 760 759 760 761 762 762 763 764 764 763 763 763 763 763 762 762 762 762 763 763 763 762 762 761 759 758 757 756 754 752 750 748 746 743 740 737 733 730 726 722 718 714 709 704
718 720 722 724 727 729 731 733 735 737 739 741 742 744 745 746 746 746 746 747 748 749 751 752 753 754 755 755 756 756 756 756 756 756 757 757 757 757 758 757 757 757 757 758 759 760 761 762 762 762 761 761 761 761 762 762 762 762 762 762 762 761 761 760 759 758 757 756 754 753 751 748 746 743 741 738 734 731 728 725 721 716 711 707 702
717 719 722 724 726 728 730 732 733 735 738 739 740 741 743 745 744 743 744 745 746 748 749 750 752 753 754 755 755 755 755 755 755 756 756 755 755 755 755 755 755 756 756 757 758 759 760 760 760 760 760 761 761 761 762 762 761 761 762 761 760 760 759 758 758 757 756 755 753 751 749 747 744 741 739 736 732 729 726 723 720 715 710 706 701
718 720 721 723 726 727 729 731 733 735 737 738 740 742 744 744 743 742 743 744 745 746 748 749 751 753 753 754 754 754 754 755 755 755 754 754 754 754 754 754 755 755 756 757 757 758 759 759 759 759 760 761 761 762 762 761 761 761 761 760 759 758 758 757 756 755 754 753 752 750 747 745 743 740 737 734 730 727 724 722 718 714 709 705 700
719 721 721 723 725 727 729 731 732 734 735 737 740 742 743 742 742 742 743 743 744 745 747 748 750 751 752 753 754 754 754 754 753 753 753 752 752 752 752 754 754 755 756 756 757 758 758 759 759 759 760 761 761 761 762 761 761 760 760 759 759 758 757 756 755 754 753 752 750 749 746 744 741 739 736 733 729 725 723 720 718 714 709 704 699
720 721 723 724 725 726 729 730 731 732 733 735 738 739 740 741 741 742 742 743 743 744 746 748 749 751 751 752 753 753 753 752 752 752 751 751 751 751 752 753 754 755 755 756 756 757 757 758 759 759 760 761 761 761 761 760 760 760 759 759 758 757 756 755 754 753 752 751 749 747 745 743 741 738 735 733 729 725 721 719 716 713 708 704 700
719 720 723 725 726 726 727 729 730 731 732 733 735 737 738 739 741 741 742 742 743 744 746 747 749 750 751 751 752 752 752 751 751 751 750 750 751 751 752 753 753 754 754 755 755 756 757 758 759 759 760 760 760 760 760 760 759 759 759 758 757 756 756 755 753 752 751 750 748 746 744 742 740 737 735 732 729 725 721 718 716 712 708 704 699
717 718 721 724 725 726 727 728 730 730 731 732 734 735 736 738 739 740 741 742 743 745 746 747 749 749 750 751 751 751 751 750 750 750 750 750 751 751 752 752 752 753 754 754 755 756 756 757 758 759 759 759 759 759 759 759 759 758 758 757 757 756 755 754 753 752 751 749 747 745 743 741 739 736 734 731 728 725 722 719 716 712 708 704 700
715 717 719 722 724 725 727 728 729 729 730 732 733 734 735 737 738 740 741 743 744 745 746 747 748 748 749 750 750 750 750 750 750 750 750 750 751 751 751 751 752 752 753 754 754 755 756 757 758 758 759 759 759 759 759 758 758 758 757 757 756 755 754 753 752 751 750 748 746 744 742 741 738 736 733 730 727 725 721 719 716 712 708 705 702
715 717 719 721 723 724 725 726 728 728 729 730 731 733 735 737 739 741 742 743 744 745 745 746 747 748 749 749 749 749 749 750 750 750 750 750 750 750 750 751 751 752 752 753 754 755 756 757 757 758 758 759 758 758 758 758 758 757 757 756 755 755 753 752 751 750 749 747 745 744 742 740 738 736 734 730 728 725 721 718 716 713 710 707 703
716 718 719 720 721 723 724 725 726 727 728 730 731 734 736 738 740 741 742 742 743 744 745 746 747 748 748 748 748 749 749 750 750 750 750 750 749 749 750 751 751 752 753 754 755 755 756 757 757 758 758 758 758 758 758 758 757 757 756 755 754 753 753 752 750 749 748 746 745 743 742 740 738 736 733 730 728 725 722 719 715 713 710 708 704
716 717 718 719 720 722 724 725 726 727 729 730 732 734 736 738 739 740 741 742 743 744 745 746 747 747 747 747 748 748 749 749 750 750 749 749 749 749 750 750 751 752 753 754 754 755 756 757 757 758 758 758 758 758 757 757 757 756 755 754 753 753 752 751 750 749 747 746 744 743 741 740 738 736 733 731 728 725 722 719 715 712 710 707 703
715 716 717 719 720 722 723 724 726 727 729 730 732 733 735 736 738 739 740 742 743 744 745 745 746 746 746 747 747 748 749 749 749 749 749 749 749 749 750 750 751 752 753 753 754 755 755 756 757 757 758 757 757 757 757 756 756 755 754 754 753 752 751 750 749 748 747 746 744 743 741 740 738 736 734 731 728 725 722 719 716 712 709 707 704
714 715 717 719 720 722 723 724 726 728 729 731 732 732 733 735 737 738 740 741 742 743 744 744 745 745 746 746 747 748 748 749 749 749 749 749 749 749 750 750 751 752 752 753 754 754 755 756 757 757 757 757 757 756 756 756 755 755 754 753 752 752 751 750 749 748 747 745 744 743 741 740 738 736 734 731 729 726 723 719 717 714 711 708 705
715 716 718 719 720 722 723 725 726 728 729 730 731 732 733 735 736 737 739 741 742 742 743 743 744 744 745 746 746 747 748 748 748 748 749 749 749 749 750 750 751 751 752 752 753 754 755 756 756 757 757 756 756 755 755 755 754 754 753 753 752 752 751 750 749 748 747 745 744 743 742 740 738 736 734 732 729 726 723 720 718 715 712 710 706
715 717 718 718 720 721 723 724 726 727 728 730 731 732 733 734 735 737 738 739 740 741 742 742 743 744 744 745 746 746 747 747 747 748 748 748 749 749 750 750 751 751 751 752 753 753 754 755 755 756 756 755 755 755 754 754 754 753 753 752 752 751 751 750 749 748 747 746 744 743 742 740 738 737 735 732 730 727 724 721 718 716 713 711 708
714 715 717 718 720 721 722 724 725 727 728 730 730 731 732 733 735 736 738 738 739 740 741 741 742 743 744 744 745 746 746 746 747 747 747 747 748 748 749 750 750 750 751 752 752 753 754 754 755 755 755 755 754 754 754 753 753 752 752 752 752 751 750 750 749 748 747 746 745 743 742 741 739 737 735 733 730 727 724 722 719 717 714 712 709
713 715 717 718 720 721 722 724 725 727 728 729 730 731 732 733 734 736 737 738 739 739 740 741 741 742 743 744 744 745 745 746 746 746 746 746 747 748 748 749 749 750 751 751 752 752 753 753 754 754 754 754 754 753 753 753 752 752 752 752 751 751 750 750 749 748 747 746 745 744 742 741 739 738 736 734 731 729 726 723 720 718 715 713 711
714 716 718 719 720 721 723 724 725 727 728 728 729 731 732 733 734 735 736 737 738 738 739 740 740 741 742 743 743 744 744 745 745 745 745 746 746 747 748 748 749 749 750 751 751 752 753 753 754 754 754 754 753 753 752 752 752 752 752 751 751 751 750 749 749 748 747 746 745 744 742 741 740 738 736 734 732 730 727 724 722 719 717 715 712
717 718 719 719 721 722 723 724 725 726 727 728 729 730 731 732 733 734 735 736 737 737 738 739 740 741 741 742 743 743 743 744 744 744 745 745 746 747 747 748 749 749 750 750 751 752 752 753 753 753 753 753 753 752 752 752 751 751 751 751 751 750 750 749 749 748 747 746 745 744 743 741 740 738 737 735 733 731 729 726 724 721 718 716 714
716 717 718 719 721 722 723 724 726 726 727 728 729 730 731 732 733 734 735 736 736 737 737 738 739 740 741 741 742 742 742 743 743 743 744 745 745 746 747 747 748 749 749 750 751 751 752 752 753 753 753 753 752 752 752 751 751 751 750 750 750 750 750 749 749 748 747 746 745 744 743 741 740 739 738 736 734 732 730 728 726 723 721 718 716
716 717 719 720 721 722 723 724 725 726 727 728 729 730 731 732 733 734 735 735 736 736 737 737 738 739 739 740 741 741 741 742 742 742 743 744 744 745 746 747 747 748 749 749 750 751 751 752 752 752 752 752 752 752 751 751 750 750 750 750 749 749 749 749 749 748 747 746 745 744 743 742 740 739 738 737 735 733 731 730 727 725 723 720 718
716 718 719 720 721 723 724 724 725 726 727 728 729 730 731 732 733 733 734 734 735 735 735 736 737 737 738 738 739 739 740 740 740 741 742 743 743 745 745 746 747 747 748 748 749 750 750 751 752 752 752 752 752 752 751 751 750 750 749 749 749 749 749 749 748 748 747 746 745 744 743 742 741 740 739 737 736 734 733 731 729 727 725 722 720
717 718 719 720 721 722 723 724 725 726 727 728 729 730 731 731 732 733 733 733 734 734 734 734 735 735 736 736 737 737 738 738 739 739 740 741 742 743 744 745 746 746 747 747 748 748 749 750 751 751 751 751 751 751 751 751 750 750 749 749 749 748 748 748 748 747 747 746 745 744 744 742 741 740 739 738 737 736 734 732 731 729 727 725 722
717 718 719 720 721 722 723 723 724 725 726 727 728 728 729 730 731 731 732 732 732 732 732 732 732 733 733 734 734 735 735 736 736 737 738 739 741 742 743 744 744 745 745 746 747 747 748 749 749 750 750 751 751 751 751 750 750 750 749 749 749 748 748 748 747 747 747 746 745 745 744 743 742 741 740 739 738 737 735 734 732 731 729 727 725
717 718 719 719 720 721 722 723 723 724 725 725 726 727 728 728 729 729 730 730 730 730 730 730 730 730 730 731 731 732 732 733 734 735 736 737 739 740 741 742 743 743 744 745 745 746 747 748 748 749 749 750 750 750 750 750 750 749 749 749 748 747 747 747 747 746 746 746 745 745 744 743 742 742 741 740 739 738 737 735 734 733 731 730 728
Wind_Speed
35 36 37 36 36 35 34 33 32 31 29 27 25 22 20 20 20 20 19 19 18 18 19 19 18 18 16 16 15 14 14 13 13 13 12 13 13 14 14 13 13 14 15 15 15 15 15 15 16 15 15 16 16 16 16 16 17 19 20 20 20 19 19 17 12 13 20 22 23 27 27 28 31 31 31 30 27 25 26 26 27 27 27 28 30
37 37 37 37 38 38 36 34 33 31 29 27 24 22 21 20 20 20 20 20 19 19 20 20 20 19 18 17 16 15 15 15 15 15 15 15 15 15 14 14 14 15 16 17 17 17 17 18 17 17 16 16 16 16 16 16 17 19 20 21 23 23 23 23 19 15 18 22 23 26 27 26 29 33 32 31 30 28 27 27 27 27 28 28 29
36 36 36 38 39 39 37 36 35 33 30 28 25 23 22 20 20 21 21 20 20 20 20 21 21 21 20 19 18 18 18 17 17 17 17 18 17 17 15 14 14 15 16 18 18 18 18 19 18 17 16 16 16 16 16 16 16 18 19 21 23 25 25 25 23 19 19 23 22 23 26 26 29 33 34 32 31 29 27 29 29 28 28 29 29
34 36 38 38 38 39 38 37 37 35 33 30 27 25 23 21 21 21 21 21 22 21 21 22 23 22 21 21 20 20 19 19 19 19 20 20 20 19 18 16 15 16 17 17 17 17 18 18 18 16 15 16 16 16 16 16 16 17 18 19 21 23 25 25 25 23 22 23 23 23 25 26 28 32 34 32 31 30 28 28 29 28 29 29 30
36 37 38 38 38 39 39 38 38 37 34 31 29 26 24 22 22 22 23 23 23 22 22 23 24 24 23 22 22 21 21 20 21 21 21 21 21 20 20 19 18 17 17 17 16 17 17 18 17 15 15 16 16 17 17 16 16 17 18 19 20 21 22 22 23 24 23 23 25 26 26 26 27 30 32 31 29 30 31 30 28 27 28 30 31
35 37 39 39 38 39 39 39 38 37 34 31 29 27 25 23 23 23 24 24 23 23 23 24 26 26 24 23 23 23 22 21 21 21 21 20 19 19 20 21 20 19 18 18 18 18 18 18 17 15 15 16 17 18 18 17 16 16 18 19 19 19 20 22 22 22 22 22 22 23 24 24 25 26 29 28 24 24 29 30 28 27 28 29 31
36 39 39 38 39 41 38 32 30 31 32 30 28 27 26 25 24 24 24 24 24 24 24 26 27 26 24 23 23 22 21 20 20 19 18 17 16 17 18 20 21 20 20 20 20 19 19 18 17 17 16 16 17 18 18 17 17 17 17 18 18 18 20 23 22 20 19 18 18 19 20 23 22 22 24 26 24 24 24 23 23 26 29 29 31
36 37 38 39 38 32 23 19 20 24 28 29 28 28 28 26 25 25 24 25 25 26 27 27 26 24 23 22 21 20 19 19 18 17 15 13 14 16 17 18 19 20 20 20 20 19 19 18 18 18 18 18 17 18 18 18 17 17 17 17 18 19 21 22 21 17 15 15 16 18 21 22 22 22 22 21 21 24 25 22 19 22 28 30 31
36 36 35 30 20 17 21 20 23 26 28 28 28 29 30 28 26 26 25 26 26 27 29 27 24 23 22 22 20 19 18 18 18 16 13 13 13 14 15 17 18 18 18 18 18 18 18 19 19 19 20 19 18 18 18 17 17 18 18 18 18 20 21 20 19 16 13 14 16 18 20 20 20 22 23 20 18 21 27 26 21 21 26 27 29
33 26 16 12 15 20 24 26 29 32 31 30 30 32 31 29 28 27 28 29 28 28 28 26 24 23 23 22 21 21 20 20 19 17 15 14 13 14 15 16 17 17 18 17 18 18 19 19 20 20 20 20 19 18 18 18 18 18 18 19 19 20 21 20 18 17 14 14 16 18 19 19 21 24 25 22 18 19 24 24 20 22 25 21 23
22 17 17 16 19 25 29 30 33 35 32 30 32 33 33 32 30 29 31 32 30 27 28 27 25 24 24 23 24 23 22 22 21 19 16 15 15 16 16 17 18 18 19 18 19 20 20 21 22 21 21 21 19 18 18 18 18 18 18 19 19 19 20 19 19 18 15 15 17 19 19 20 23 26 26 22 18 18 21 21 20 24 25 20 19
21 23 25 27 29 30 32 35 35 31 30 32 35 34 34 34 33 33 34 34 31 28 27 28 27 26 25 26 26 24 23 22 21 20 18 17 18 18 18 19 20 20 20 20 21 22 23 23 23 23 22 21 19 18 18 18 18 18 19 19 19 19 20 20 20 19 17 17 18 20 22 22 23 25 24 20 17 18 21 21 22 25 25 22 20
26 28 28 28 31 33 33 33 31 30 31 32 33 34 35 35 35 36 37 35 32 29 27 28 28 27 27 28 28 26 24 23 22 20 20 20 20 20 21 21 22 22 22 22 22 24 25 24 24 23 22 20 19 18 18 19 19 19 19 20 21 21 21 20 21 20 20 19 19 21 24 23 22 23 26 24 21 22 24 23 24 25 24 23 25
27 28 28 30 33 34 33 33 35 37 33 30 32 35 35 34 35 36 35 33 31 30 29 29 29 28 28 30 30 28 26 24 22 21 21 21 21 21 21 22 23 24 24 23 24 25 24 23 22 22 21 20 18 18 19 20 19 19 20 21 22 23 22 20 19 19 19 20 21 24 27 26 23 24 28 28 25 26 28 25 25 27 26 28 32
28 29 31 34 36 37 38 40 42 40 34 32 34 34 33 33 34 33 32 31 31 31 30 29 29 29 30 31 31 30 28 26 23 21 20 21 21 21 21 22 23 24 24 25 25 25 23 22 21 20 20 19 19 19 19 19 20 20 22 23 24 24 23 21 19 19 20 23 25 26 28 29 27 25 26 26 27 29 29 27 27 28 28 30 33
30 32 35 38 39 39 40 43 44 41 34 31 32 32 32 33 33 31 31 31 31 31 30 29 30 31 31 32 32 32 30 27 24 22 21 20 21 21 22 22 22 24 25 26 26 25 23 20 19 19 19 20 19 18 18 18 19 21 22 24 25 25 25 22 19 19 22 24 25 25 26 28 28 27 26 26 28 29 28 27 26 24 25 26 26
32 35 39 41 41 40 41 43 42 36 30 28 31 33 34 33 32 30 30 30 31 31 30 30 30 31 31 32 33 33 31 28 25 23 22 22 22 22 23 23 23 23 24 26 27 26 22 17 17 18 20 20 18 17 17 18 20 22 23 24 24 24 25 23 20 21 22 23 23 24 25 27 27 27 26 24 23 23 23 24 23 20 21 20 18
36 39 41 40 39 38 39 38 35 30 28 30 33 35 34 32 30 29 29 30 31 30 30 29 29 30 30 30 31 32 31 28 25 24 23 23 23 23 23 24 23 23 25 26 25 19 13 12 16 18 19 19 17 17 18 19 21 22 22 21 21 22 24 23 21 22 22 22 24 24 26 28 27 26 26 24 22 20 19 21 21 20 22 19 18
39 39 36 34 34 35 35 35 35 35 35 36 35 35 34 31 28 28 29 30 30 30 29 28 28 30 30 29 29 30 30 29 26 24 25 24 24 24 24 23 23 25 26 21 14 10 9 11 16 18 19 18 18 18 19 19 20 20 19 18 18 21 23 21 19 19 20 22 24 25 26 27 24 22 23 23 24 22 19 20 19 19 23 24 25
36 33 29 30 33 34 36 39 40 39 38 36 34 34 33 30 27 28 29 30 29 28 26 25 27 28 28 28 28 27 27 27 24 24 24 24 24 24 22 21 23 24 19 10 7 12 16 17 18 19 18 18 18 18 19 18 18 18 17 17 18 20 20 17 15 15 18 21 23 24 25 24 21 19 19 21 24 25 24 24 22 21 22 26 30
30 27 27 30 32 34 37 41 40 38 35 32 33 36 35 30 28 29 29 27 26 24 24 24 25 26 26 26 25 24 23 23 22 23 23 23 24 25 21 20 21 19 11 6 8 14 18 19 20 19 17 17 17 17 17 17 16 17 17 17 18 18 16 14 13 15 17 20 22 21 20 19 19 20 21 23 27 28 28 29 28 26 25 26 30
28 28 28 29 30 32 34 35 34 32 31 30 33 36 34 29 28 28 26 24 22 22 22 22 23 24 24 23 23 22 21 21 21 22 22 21 22 22 20 18 18 16 14 14 15 17 19 21 19 17 15 15 15 15 16 16 16 17 19 18 16 13 10 11 13 15 17 19 19 18 16 16 18 21 23 27 30 30 30 31 30 30 29 29 31
27 28 27 27 28 30 30 30 29 28 30 32 34 35 32 29 28 26 24 22 21 21 21 20 21 22 22 21 20 19 19 19 19 19 20 18 17 17 16 15 16 16 18 19 20 20 21 20 16 14 15 14 14 15 15 16 17 18 17 13 10 8 9 11 13 16 18 18 16 15 15 15 16 18 21 25 28 30 31 31 30 30 30 32 35
25 25 25 25 26 27 27 27 28 29 30 32 32 32 31 29 27 25 22 20 19 19 19 17 17 17 18 18 19 18 17 16 16 15 15 15 15 15 15 15 16 17 18 19 19 19 18 16 14 14 14 14 15 16 16 16 16 13 9 7 7 8 9 11 14 16 17 16 14 14 15 15 15 17 21 24 27 30 30 30 30 30 30 32 36
24 24 23 23 24 25 24 25 26 28 28 27 27 29 30 28 25 23 20 18 18 17 16 14 13 13 14 16 17 17 16 15 14 13 13 14 15 16 16 17 18 18 19 19 18 17 15 13 13 14 15 15 16 17 16 14 10 8 7 6 7 9 11 12 14 15 14 13 12 13 15 17 18 20 23 25 26 28 28 28 30 31 32 33 36
23 24 23 23 23 22 22 22 22 23 22 22 23 25 27 26 24 21 18 16 15 14 12 11 11 11 13 15 17 17 16 15 14 13 12 13 16 17 18 19 19 18 18 17 16 15 13 12 12 14 16 16 16 14 11 9 7 6 6 6 7 9 10 12 13 12 12 11 12 13 16 19 20 22 23 24 25 26 26 27 28 30 32 33 35
23 23 23 21 20 20 21 21 21 20 18 18 20 22 23 23 21 18 14 12 11 11 11 11 10 11 13 15 15 16 16 15 14 13 12 12 14 15 14 14 14 14 16 15 13 12 11 10 11 12 13 12 9 7 7 7 5 4 4 5 6 7 8 9 10 10 10 11 12 14 16 18 20 22 24 24 26 28 27 26 27 30 32 32 31
22 21 20 19 18 18 19 19 19 17 16 15 17 17 18 18 16 12 10 9 9 9 9 9 9 10 11 12 13 15 16 15 13 11 10 10 11 11 9 8 9 12 13 12 10 10 9 9 9 10 8 4 4 6 7 6 5 4 4 5 6 6 7 8 8 8 9 10 12 14 16 18 20 22 24 25 27 29 28 26 26 29 31 30 27
18 17 16 15 14 14 14 13 12 11 11 11 12 12 11 11 10 8 7 8 8 7 7 8 8 8 9 10 11 13 15 14 12 11 11 11 10 8 6 5 7 10 10 10 9 9 8 7 7 6 4 6 8 7 6 5 4 4 4 5 5 6 7 7 7 8 9 10 12 14 16 18 20 21 23 26 27 29 28 27 27 28 29 28 27
11 10 11 10 10 10 10 9 9 9 9 9 10 9 8 7 7 7 7 7 7 7 7 7 8 9 9 9 10 11 13 13 12 12 12 11 9 7 4 4 7 9 10 9 10 8 7 6 7 7 8 8 7 6 4 4 3 3 4 5 6 6 6 6 7 8 9 10 12 13 15 17 19 21 23 25 27 29 29 28 27 26 26 28 29
11 9 8 7 7 9 9 8 8 8 8 8 10 11 9 7 6 6 6 6 6 6 7 7 8 8 8 8 9 10 10 11 10 10 9 8 6 5 4 5 7 9 9 9 8 8 7 8 8 7 7 6 5 3 3 2 2 3 4 5 6 6 7 7 8 9 10 11 13 14 15 17 19 20 22 24 26 29 30 29 28 27 25 26 27
17 14 11 6 4 6 7 7 8 9 10 12 12 11 9 7 6 5 5 6 6 7 6 6 5 5 5 6 7 8 8 8 8 7 6 5 4 4 4 6 7 8 8 8 8 7 8 9 8 7 6 5 3 2 1 1 2 3 4 6 7 7 8 9 9 9 11 12 13 14 15 17 18 20 22 23 24 27 29 28 28 28 25 26 27
17 15 12 8 6 6 8 12 14 15 15 14 13 11 9 8 7 5 4 4 5 5 4 3 3 3 4 5 5 5 6 6 6 5 4 3 3 4 5 6 7 7 7 8 8 8 9 9 7 6 6 4 3 2 0 1 2 4 5 6 8 8 9 9 9 10 10 10 12 13 14 16 18 20 22 23 24 26 27 25 25 26 24 24 27
12 16 18 16 13 13 14 16 16 15 13 12 11 9 8 9 8 7 6 5 4 4 4 3 3 3 3 3 3 3 4 4 4 4 3 2 3 4 5 5 6 6 7 8 9 9 10 9 8 7 6 4 3 1 1 2 3 5 6 7 8 8 9 9 9 9 10 10 11 13 14 16 18 19 21 23 24 25 26 23 22 24 24 23 25
17 19 16 12 12 15 16 16 15 13 11 9 8 8 9 10 10 9 9 8 7 6 5 4 4 2 1 3 3 2 3 3 3 3 3 3 3 4 4 4 6 7 8 8 9 10 10 9 8 7 5 4 3 2 2 3 4 5 6 7 8 9 9 9 8 8 9 10 11 13 15 16 18 19 20 22 23 23 24 22 20 21 22 22 24
17 15 11 9 11 13 13 13 11 9 7 7 8 9 10 10 10 10 9 8 7 6 6 6 5 2 1 3 3 2 2 3 3 2 2 1 1 1 3 4 6 7 8 9 9 10 9 8 7 6 4 3 2 2 3 4 5 6 7 8 8 8 8 8 8 8 9 10 11 13 15 16 18 19 20 22 22 22 21 21 20 21 22 22 22
13 13 11 11 11 10 9 8 7 6 6 7 8 9 9 8 8 8 7 6 6 5 6 7 6 3 3 4 3 2 3 3 2 1 1 2 2 1 2 4 6 8 10 10 10 9 8 7 6 5 4 3 2 3 3 4 6 7 7 7 6 6 6 6 6 8 9 10 11 13 15 16 18 19 20 21 22 23 22 21 22 23 24 24 23
14 15 14 13 11 10 10 9 9 8 8 8 8 9 8 7 6 6 5 6 6 6 6 8 7 5 6 6 5 4 4 3 2 1 1 1 2 1 2 4 6 8 9 9 8 7 7 6 6 4 3 3 2 3 4 5 6 6 6 5 4 4 4 4 6 7 8 10 11 13 15 16 17 18 20 20 20 22 23 23 23 23 23 24 24
16 15 15 13 12 11 11 11 11 10 9 9 8 7 7 6 6 6 6 6 6 6 7 7 8 8 8 8 6 6 6 5 4 3 2 1 1 2 3 5 7 8 8 8 8 7 7 7 6 5 4 3 2 3 5 6 6 5 4 3 3 3 3 4 6 8 9 10 12 13 15 17 17 18 20 20 21 22 23 22 22 21 20 21 22
16 15 14 12 12 11 11 11 11 10 9 8 7 7 7 6 7 7 7 7 7 7 7 7 8 9 9 8 7 7 7 7 6 5 4 4 4 4 5 6 7 8 8 9 9 8 7 7 6 5 3 2 2 4 5 5 4 3 3 2 2 3 4 5 7 8 10 11 12 13 15 16 17 18 20 21 21 22 22 22 22 21 20 20 21
14 14 12 10 10 11 11 10 10 8 7 7 7 7 8 7 6 7 8 8 8 8 7 7 9 9 8 8 8 8 8 8 8 7 7 7 7 7 7 7 7 8 8 9 9 8 7 6 5 4 2 1 3 5 4 3 3 2 2 2 2 3 4 6 7 8 10 11 12 13 14 15 17 18 19 20 21 22 22 22 22 22 22 22 21
12 12 12 11 11 12 11 10 10 8 7 7 6 7 7 7 6 7 8 9 8 8 7 8 8 8 8 7 7 8 9 9 9 9 9 8 9 9 9 8 6 6 7 7 7 6 6 5 4 2 0 2 4 5 4 3 2 2 1 1 2 3 4 5 6 8 9 11 12 13 14 14 16 17 18 19 20 21 22 23 23 22 22 22 22
12 12 13 13 12 11 10 10 9 8 7 6 6 6 7 7 7 7 8 8 8 8 8 9 8 8 9 9 8 8 9 9 8 7 7 7 8 9 9 7 6 5 6 6 6 5 5 4 3 2 1 2 4 5 3 2 2 2 1 1 1 3 4 5 6 7 9 11 13 13 13 14 15 16 17 18 19 19 20 21 22 22 22 22 22
12 13 13 13 12 11 10 9 8 7 7 7 6 7 7 7 7 7 7 8 8 8 8 9 9 10 11 11 10 9 9 7 6 5 5 6 7 8 8 7 6 5 6 6 6 5 5 4 2 2 1 2 4 4 2 1 2 2 1 1 1 2 4 5 6 7 8 11 13 14 14 14 14 15 16 17 17 18 19 20 21 22 22 22 21
14 15 14 13 12 11 10 9 8 8 9 8 7 7 6 6 6 6 7 8 8 8 8 9 10 12 13 12 11 10 8 7 6 6 7 7 8 8 8 7 6 5 5 6 7 6 5 4 3 2 2 2 2 3 2 2 2 2 1 1 1 1 3 4 5 6 8 10 12 13 13 14 15 15 15 15 16 16 17 18 19 21 21 21 20
14 14 14 14 12 11 10 9 9 9 9 8 8 7 6 6 6 6 7 8 8 8 8 9 11 12 13 13 12 10 9 8 8 8 8 9 9 9 8 8 6 5 6 6 7 6 5 4 3 2 2 1 1 3 4 3 3 2 1 1 1 0 2 3 4 6 7 10 11 11 12 13 14 14 13 13 13 14 15 16 17 19 20 19 19
12 12 12 12 11 10 10 10 9 9 9 8 8 7 7 7 7 6 7 8 8 8 9 10 11 13 14 14 13 12 11 10 10 9 9 9 10 9 9 8 7 7 7 7 7 7 6 5 4 3 2 1 2 4 6 5 5 4 3 2 1 0 1 3 4 5 7 9 10 9 10 12 13 12 12 12 12 13 14 14 15 18 19 18 18
12 12 12 12 11 10 10 10 10 9 9 8 8 8 8 8 8 8 8 9 9 10 10 10 11 13 14 15 15 14 13 12 11 11 10 10 10 10 10 9 8 9 9 8 8 8 8 7 5 4 2 2 2 4 5 6 6 6 5 5 3 2 1 2 3 4 6 9 9 8 9 11 11 10 10 10 11 11 13 13 14 16 17 17 18
12 12 11 11 9 9 8 8 8 8 8 8 8 8 8 9 9 9 10 11 11 11 11 12 12 14 15 16 17 16 15 15 14 13 12 11 11 11 11 11 10 11 11 10 10 10 9 8 7 5 4 3 2 2 4 6 7 7 7 7 6 4 3 3 2 3 5 7 8 7 7 10 10 8 8 9 9 10 11 12 13 14 15 17 19
10 10 9 9 8 7 7 6 6 6 6 7 7 8 8 9 11 12 12 13 14 14 15 15 16 16 16 17 18 18 18 18 17 16 15 13 13 13 14 13 13 13 13 12 12 11 10 9 8 7 6 5 4 2 2 4 6 7 7 8 8 6 4 4 3 2 4 6 6 5 6 8 8 7 6 7 8 8 10 11 12 13 14 16 18
9 8 8 8 7 7 7 6 6 7 7 8 9 9 9 10 12 12 13 14 15 16 17 18 19 20 20 20 20 20 20 20 20 19 17 16 15 15 16 16 15 15 14 14 14 13 12 10 10 9 8 7 6 4 2 2 3 5 6 8 10 10 7 4 4 3 3 4 5 4 4 7 8 6 6 6 7 8 10 11 11 12 13 15 16
Wind_Direction
207 207 207 207 208 211 214 214 213 213 213 213 214 216 220 223 224 223 223 224 223 222 223 225 228 231 232 234 237 239 240 240 242 245 249 255 258 261 264 265 266 267 269 269 268 268 268 270 274 277 278 279 279 279 277 273 267 261 260 261 260 260 259 251 247 270 281 284 289 296 305 311 313 316 321 323 323 326 328 332 335 336 336 336 336
206 207 205 204 206 208 211 213 212 212 212 212 212 214 219 223 224 223 224 224 223 225 228 228 230 232 233 236 239 241 243 244 246 248 250 254 256 258 260 262 267 269 270 270 268 268 268 268 274 279 279 280 282 282 282 279 274 268 263 262 262 263 264 260 256 265 282 287 288 294 300 305 308 311 316 318 319 320 323 327 332 333 333 333 331
205 205 204 205 205 205 208 209 209 209 210 211 211 213 218 222 222 223 224 223 224 228 231 231 232 234 236 239 242 244 247 249 252 256 257 257 256 256 258 262 267 270 270 271 271 269 268 269 273 277 279 281 283 284 283 281 277 275 273 271 269 269 270 267 263 265 278 286 288 291 296 300 303 307 311 315 316 316 318 323 328 330 331 331 329
203 203 204 205 204 204 206 206 205 206 208 210 211 212 215 219 221 223 224 224 225 229 233 234 235 237 239 243 246 248 250 252 257 262 264 264 261 258 258 259 262 267 269 271 272 270 269 269 271 276 281 285 287 286 284 281 280 279 280 281 280 278 277 274 270 269 274 282 286 286 290 296 300 303 307 311 313 313 315 319 323 325 328 328 327
203 203 203 203 202 203 203 202 202 203 205 208 209 211 215 218 221 224 225 226 228 230 234 235 236 239 241 244 248 250 252 256 260 264 265 266 265 263 260 257 258 262 267 271 273 271 269 268 270 276 283 286 289 289 287 285 284 283 283 285 285 286 285 282 278 275 272 274 281 285 287 292 297 300 303 307 310 311 313 317 320 321 323 324 324
202 202 204 202 201 202 202 201 200 200 203 207 209 211 216 218 222 226 228 229 231 233 235 236 237 239 242 246 250 253 255 257 259 261 262 263 264 263 258 253 254 259 265 269 271 270 269 269 271 275 279 285 289 290 289 288 286 285 285 286 287 289 289 287 285 280 274 272 277 283 287 292 295 296 299 303 305 306 309 314 317 318 318 320 321
202 203 203 201 201 203 201 197 195 197 204 209 210 213 217 220 224 228 230 231 233 233 234 235 237 239 245 251 254 256 256 255 255 256 257 258 260 259 254 250 252 259 265 267 268 269 269 270 271 272 274 281 288 291 290 287 285 284 284 286 288 288 289 291 290 283 276 274 277 281 286 291 292 290 295 302 304 302 302 306 310 313 316 317 316
203 203 202 202 204 198 179 172 190 204 210 212 214 217 220 223 225 229 232 233 235 233 229 231 236 242 250 254 255 255 253 252 251 250 251 257 259 256 253 252 255 260 263 264 266 267 268 270 270 270 273 277 284 290 289 284 283 282 283 285 287 286 288 291 289 283 277 276 278 282 287 290 289 287 292 299 301 301 303 303 300 302 310 314 314
204 206 205 201 185 143 135 166 203 216 216 215 217 220 223 225 226 229 232 232 236 236 231 232 238 245 252 254 252 251 251 252 250 247 252 261 261 259 256 255 258 260 262 264 265 265 266 268 269 270 272 273 278 284 284 280 278 279 281 285 286 286 286 286 284 280 276 275 279 284 288 288 287 288 290 292 290 293 300 302 298 297 304 307 309
205 200 181 143 117 127 155 185 209 219 219 218 219 221 224 227 227 230 232 233 237 237 232 233 239 247 252 252 248 249 252 254 250 247 254 262 263 263 263 261 260 260 263 266 267 266 265 266 269 271 271 271 272 277 281 278 274 274 279 283 285 284 282 280 278 277 275 276 280 284 287 287 288 289 288 288 288 291 295 298 296 300 305 304 305
187 156 138 145 156 161 172 190 209 220 222 220 220 222 224 227 227 228 231 237 242 240 233 233 240 247 250 248 246 249 252 253 249 247 251 257 259 262 263 263 263 262 264 267 267 268 268 269 272 273 273 271 269 273 280 277 272 272 275 278 281 282 279 276 274 274 274 273 277 283 284 285 289 291 289 288 288 289 292 295 296 298 302 303 302
159 157 170 179 174 167 177 194 208 220 224 219 219 223 225 226 226 226 230 237 243 240 234 236 242 247 248 246 246 248 252 253 249 246 249 252 254 257 258 260 263 263 265 266 268 269 270 272 276 277 277 274 270 272 278 277 273 271 272 275 278 280 279 275 272 273 274 275 279 284 284 284 288 289 288 288 289 292 293 295 296 294 295 297 296
165 171 176 174 169 171 184 196 205 218 224 219 220 226 227 226 227 228 230 236 241 240 237 240 245 247 246 244 245 249 253 252 247 246 249 250 251 255 257 259 261 263 264 265 267 269 270 273 276 280 281 277 271 272 278 278 275 272 272 274 274 277 279 278 274 274 275 277 279 281 283 284 284 285 288 291 292 294 295 294 294 294 292 294 293
166 168 169 170 170 175 186 195 203 214 219 216 219 226 228 228 229 231 232 235 240 241 240 243 246 246 245 244 245 250 253 251 247 246 248 248 250 256 260 261 262 263 265 266 267 268 269 271 275 280 282 278 272 273 277 279 277 274 274 273 273 276 279 278 277 277 278 281 282 284 287 288 283 284 291 295 293 292 293 291 292 294 292 292 293
164 166 169 172 173 178 188 195 202 211 215 212 215 221 225 228 232 234 235 237 240 242 244 246 246 246 246 245 245 249 254 253 249 248 250 250 252 256 260 262 262 263 264 265 266 265 266 269 274 278 278 272 269 272 276 278 277 276 275 274 275 278 280 279 279 278 281 288 290 289 291 292 290 289 291 293 292 290 290 290 290 292 291 292 292
165 167 172 176 180 187 193 197 202 210 213 210 211 215 221 228 233 237 239 241 243 245 246 246 246 246 247 246 245 247 254 256 253 252 253 252 253 256 257 258 260 262 264 266 266 264 262 265 273 276 272 267 267 270 275 276 275 274 274 275 277 280 280 280 280 281 285 290 292 291 291 292 293 292 291 292 292 291 293 293 291 292 292 292 292
168 173 181 185 187 192 196 198 202 207 211 212 213 217 222 229 235 240 242 242 242 244 245 245 246 248 248 247 246 249 255 259 258 257 258 257 256 256 256 260 263 263 266 268 266 261 256 262 277 278 269 265 267 271 273 274 274 275 275 276 277 278 279 281 284 289 290 291 292 294 296 298 300 301 301 301 298 297 297 292 289 293 295 293 295
177 185 190 189 188 192 194 196 198 201 209 218 219 219 223 231 239 243 242 241 243 244 245 246 247 248 247 247 250 254 259 262 262 262 263 263 260 258 261 265 268 269 271 270 267 263 254 262 276 273 264 265 270 273 275 276 276 276 275 275 276 276 280 286 292 295 295 296 300 303 306 309 310 309 310 309 306 304 294 285 286 293 294 292 292
189 193 192 187 186 190 191 193 195 199 208 218 218 218 226 235 242 245 244 244 245 245 244 246 248 248 247 248 251 256 260 263 265 264 265 265 265 267 268 269 272 275 275 269 268 281 285 279 277 269 262 264 269 273 277 277 276 276 275 273 273 276 284 292 297 298 299 302 308 311 313 314 313 310 310 310 310 309 299 291 290 289 290 291 291
194 194 189 185 187 190 191 195 199 200 207 215 216 219 230 238 242 246 246 244 243 243 244 247 249 252 252 251 253 256 259 264 267 267 266 267 271 274 275 276 278 277 273 268 268 271 271 275 279 271 262 264 269 274 277 276 275 277 275 270 271 279 289 294 294 298 303 307 312 314 314 315 315 312 311 314 318 319 314 308 301 290 288 290 290
192 188 187 189 190 191 194 198 201 201 204 210 214 221 230 238 241 243 242 239 239 242 245 246 249 254 255 255 257 261 263 267 271 272 272 275 278 280 280 282 281 272 261 259 260 251 252 264 274 270 263 266 272 274 276 277 276 275 275 277 281 284 286 287 292 301 307 311 313 313 312 315 317 318 318 321 325 325 321 316 310 302 296 290 287
189 187 189 189 189 192 196 198 201 204 204 206 213 221 230 238 242 242 239 237 239 241 243 244 247 252 256 258 261 266 270 273 276 279 281 283 284 286 286 284 275 262 250 251 253 252 259 271 276 273 269 272 275 276 278 278 277 278 282 286 284 274 268 279 294 305 310 313 314 312 312 315 319 320 322 323 324 324 321 318 315 310 305 299 294
188 186 188 188 188 193 196 197 200 204 207 210 216 224 232 241 244 241 237 235 236 238 241 242 245 252 258 263 269 275 281 283 285 286 287 287 286 286 288 285 275 265 257 255 258 264 270 275 277 274 275 280 283 282 281 281 282 285 285 280 264 248 259 281 296 305 310 313 313 310 312 316 318 318 319 320 321 322 321 321 318 313 308 307 306
183 181 183 185 188 192 196 198 201 206 209 212 218 226 235 243 242 236 232 230 231 234 237 239 244 253 264 274 283 291 295 296 297 295 291 288 284 282 282 282 279 273 265 261 265 268 268 269 271 273 281 289 291 289 288 288 286 282 270 251 238 243 260 280 296 305 309 311 312 311 314 316 315 316 318 319 320 322 322 322 321 317 313 311 310
180 179 180 183 185 189 193 196 203 207 209 212 220 228 234 236 232 228 226 226 228 232 235 240 249 260 273 284 294 300 302 303 305 303 297 288 284 283 281 280 280 278 270 264 262 261 262 265 270 276 286 294 297 297 293 284 270 249 231 231 241 251 264 280 296 304 307 310 311 310 312 316 317 319 322 323 323 324 324 324 322 320 319 317 315
179 180 183 185 186 189 192 196 202 207 209 215 226 232 232 230 225 222 221 221 227 236 244 251 262 274 284 291 297 301 305 307 308 311 309 296 287 285 283 282 280 275 266 258 252 252 260 272 279 285 291 294 294 290 275 250 230 224 227 237 249 262 276 289 298 306 310 310 311 311 314 320 323 325 328 328 326 326 327 325 322 320 321 320 318
180 182 186 189 192 197 201 203 207 212 218 226 231 232 231 229 223 218 218 222 232 245 254 264 276 285 289 294 300 304 307 309 312 317 316 305 296 293 290 287 279 266 255 249 251 260 272 284 292 295 297 294 283 255 214 200 210 227 238 257 275 285 294 299 304 310 311 311 313 316 319 325 329 332 334 333 331 332 333 330 323 320 321 321 318
181 184 190 195 202 207 210 210 212 217 224 228 225 222 222 222 216 212 219 231 239 248 261 274 283 287 290 298 305 306 304 304 310 316 315 312 308 305 302 294 276 260 249 246 257 272 282 291 296 297 294 269 200 182 182 194 218 238 258 281 295 303 309 313 316 317 316 318 321 324 327 332 335 338 339 336 334 336 336 333 327 323 323 325 320
184 186 192 200 207 210 211 214 219 220 216 211 208 208 209 210 209 211 222 234 242 255 272 280 284 288 293 299 301 297 293 295 302 307 310 314 317 313 307 293 268 255 250 254 268 279 281 280 277 265 226 181 176 183 195 211 232 257 281 301 316 322 325 329 332 331 330 329 329 332 335 337 338 340 340 338 336 337 336 334 332 327 325 327 323
174 178 185 196 208 213 211 210 209 205 197 194 201 210 214 217 220 222 229 242 255 268 276 280 286 290 291 291 285 278 279 288 297 304 309 316 324 323 308 268 248 247 252 263 272 273 264 247 229 207 189 184 190 200 215 239 266 291 307 321 332 335 338 342 340 339 335 332 333 336 339 340 341 341 340 337 335 336 337 335 333 329 327 329 325
130 135 147 163 182 193 193 191 189 189 194 206 215 216 217 223 233 239 247 258 270 280 281 282 286 286 284 281 276 272 279 289 297 307 315 322 327 323 299 259 247 251 258 263 261 254 239 221 202 188 185 191 199 214 243 269 299 319 326 334 340 344 346 344 341 339 335 332 334 338 341 343 343 341 340 337 334 335 335 336 337 335 331 330 326
109 102 105 119 150 168 179 194 204 207 215 223 224 219 215 217 227 248 270 277 280 283 279 274 274 270 263 263 266 273 286 296 306 319 329 328 312 288 269 259 256 257 255 249 244 237 223 209 193 184 189 196 195 205 248 292 324 329 333 341 345 346 345 341 337 336 333 331 335 339 342 345 345 342 341 339 336 335 334 334 338 337 332 332 331
113 115 134 169 212 225 219 219 218 214 213 216 216 215 219 224 229 240 259 271 272 262 245 232 230 229 237 247 258 274 293 307 320 330 335 324 291 265 258 258 256 248 237 231 228 219 207 198 191 186 188 187 178 176 235 309 326 334 338 339 338 338 337 333 329 329 330 331 338 343 345 348 348 347 344 342 339 336 334 332 336 337 334 334 334
162 168 175 189 213 229 224 218 215 212 210 210 212 219 231 239 240 236 228 220 213 200 186 181 187 202 229 249 262 289 309 317 322 326 332 330 297 271 265 260 244 226 219 220 218 207 192 184 181 181 181 180 180 190 273 306 323 332 333 331 331 330 328 326 326 330 334 338 346 350 350 352 353 351 348 345 343 339 335 333 336 337 336 336 333
186 183 185 202 227 231 223 215 211 210 209 210 218 231 237 237 237 233 224 215 202 185 175 176 176 176 259 282 285 315 324 315 314 325 335 327 293 265 251 237 218 209 208 210 207 197 186 179 178 179 183 190 197 225 282 299 314 322 324 330 332 327 324 327 332 338 344 349 353 354 354 355 357 356 351 347 344 339 333 332 334 337 338 336 330
185 187 200 219 220 214 208 204 201 202 207 213 222 229 230 229 229 228 224 217 204 186 180 182 176 171 270 280 282 299 297 291 301 321 344 360 335 226 218 214 206 199 193 189 185 182 179 179 180 180 183 195 216 263 287 296 308 316 323 330 331 326 327 335 342 349 356 358 357 357 359 360 1 1 355 349 345 340 334 332 334 339 342 340 333
191 191 189 185 181 179 180 183 186 191 203 210 214 214 211 212 217 218 213 206 200 191 189 188 184 200 248 251 250 253 253 257 273 302 43 70 81 125 209 217 207 193 182 176 177 177 176 176 180 184 189 206 239 268 287 301 310 318 326 331 329 329 336 346 354 0 2 360 359 2 3 4 5 4 358 351 346 343 342 340 339 342 347 348 345
183 178 170 165 165 167 170 171 172 176 184 189 193 195 192 193 203 207 200 193 193 198 204 201 198 214 236 235 225 217 218 224 233 230 119 83 78 98 208 211 203 192 182 179 181 183 180 178 182 191 200 216 247 277 300 311 315 322 331 332 331 338 351 2 8 8 6 3 4 6 6 6 8 7 1 354 348 347 347 348 346 344 346 350 351
166 164 161 160 162 164 165 164 163 168 175 179 181 185 183 182 191 196 194 189 191 202 213 212 210 220 231 230 219 206 203 206 215 221 211 184 167 180 193 195 193 190 186 183 182 183 181 180 184 194 204 216 258 301 313 318 322 330 338 341 350 7 16 22 20 15 11 8 6 7 8 8 9 8 5 359 355 352 351 351 351 348 345 345 348
157 156 157 158 159 161 161 160 162 169 175 178 183 190 190 187 190 194 194 194 198 202 208 212 216 225 231 229 220 211 210 215 224 229 228 222 215 208 202 198 195 190 186 184 183 183 182 181 184 193 200 218 311 328 328 327 331 339 346 3 38 39 32 31 27 19 15 12 8 7 9 8 7 9 7 3 360 358 357 355 356 357 355 352 351
156 157 161 164 165 165 162 159 164 173 179 184 194 201 199 195 191 191 193 197 198 198 202 209 216 223 228 228 222 217 218 226 236 241 242 238 234 229 220 211 202 194 190 188 185 183 183 181 181 186 187 340 347 349 350 347 348 1 24 46 59 50 36 31 28 20 15 13 10 9 9 8 8 8 6 4 3 4 3 2 1 1 3 2 358
163 169 173 172 171 169 164 164 171 179 183 190 199 204 204 198 185 179 184 189 192 193 198 204 213 221 223 219 216 218 225 236 247 256 256 248 239 234 229 221 210 199 194 193 190 188 190 186 182 180 167 356 349 349 355 1 15 47 77 76 61 54 42 32 28 21 14 11 10 10 10 8 7 7 5 5 6 6 5 6 6 6 7 8 7
177 179 175 172 171 170 168 171 176 180 182 185 187 190 193 187 174 168 174 180 185 191 195 195 200 207 207 204 207 217 229 241 252 262 264 252 237 230 227 223 213 198 192 193 195 197 200 198 193 200 289 340 340 342 350 14 48 76 113 131 65 54 44 34 27 19 12 8 8 9 10 8 6 6 5 5 6 7 7 8 9 10 10 11 12
178 173 171 171 170 167 167 170 171 169 168 170 171 171 171 169 167 168 172 177 183 188 192 192 191 193 196 203 212 221 232 243 251 255 257 246 231 221 218 216 212 201 194 197 200 201 205 211 213 225 278 323 339 349 5 45 68 88 135 160 93 49 37 34 30 21 13 7 4 5 8 8 5 4 5 5 6 8 9 10 11 12 12 13 15
177 172 170 169 165 161 160 161 161 162 162 163 165 166 165 168 175 177 177 182 187 191 192 193 193 195 201 210 219 224 231 240 243 244 243 233 221 215 211 209 208 205 201 200 201 202 208 216 220 231 262 307 354 21 40 66 85 99 137 171 146 46 27 26 27 21 14 8 3 2 4 4 3 3 4 5 6 8 10 12 14 14 13 14 15
174 172 169 167 165 161 158 155 158 162 164 165 168 171 173 179 186 184 182 185 191 197 200 199 200 204 211 218 223 226 230 232 232 232 229 221 215 212 208 203 199 193 189 190 196 203 210 215 218 230 254 277 43 54 57 64 75 80 88 138 172 94 26 25 23 19 11 4 2 2 2 1 360 360 0 3 7 8 9 15 19 18 17 17 17
171 170 170 170 165 160 157 156 159 164 166 168 172 175 178 183 187 191 194 197 202 210 214 213 212 214 218 222 225 228 230 230 228 228 225 220 214 209 206 204 198 188 182 186 195 204 209 212 215 220 221 183 106 69 59 58 57 52 47 46 53 278 27 28 21 15 9 3 2 3 2 359 357 356 358 5 10 9 10 18 24 23 21 22 23
168 168 170 170 165 163 164 165 167 171 174 176 180 184 188 193 200 206 212 215 220 224 227 227 225 223 225 228 230 232 232 230 227 227 226 223 216 209 208 211 209 201 196 199 205 208 210 212 212 209 201 174 126 79 60 55 53 46 36 28 14 344 346 12 16 12 7 5 5 4 0 358 358 356 359 8 13 10 14 24 30 28 28 32 33
170 170 171 170 169 170 172 174 178 184 186 190 197 204 208 214 220 225 227 231 236 240 244 244 240 233 229 230 232 234 234 232 228 226 225 224 219 215 214 215 215 212 212 214 214 211 211 212 211 208 204 194 165 103 66 57 56 52 44 32 18 352 324 324 346 2 1 1 5 5 357 356 360 1 4 13 17 15 20 32 37 36 39 42 41
172 174 176 178 181 187 191 195 202 208 211 216 223 227 231 236 240 243 244 244 246 248 249 251 249 244 239 235 233 233 233 232 229 226 224 223 221 217 215 215 216 220 224 225 221 216 212 213 214 212 210 208 199 169 90 60 54 51 45 37 27 13 343 305 297 320 346 356 5 9 359 358 4 9 14 18 20 22 31 41 44 45 48 50 48
174 176 179 185 193 202 211 217 224 231 239 247 252 254 255 256 257 257 258 259 260 260 258 256 254 252 248 244 239 236 234 233 231 227 224 223 222 218 216 216 220 225 229 230 226 220 216 216 217 216 214 213 208 200 176 68 44 34 28 22 17 12 359 321 280 275 311 345 1 9 2 2 8 18 28 32 32 35 42 48 49 51 55 57 55